Kazan, Russia

7:15 PM MSK on December 09, 2019 (GMT +0300)
Kazan

Weather History for UWKD - October, 2019

Change the Weather History Date:

Tuesday, October 15, 2019

  Actual Average (WUND) Record (WUND)
Temperature  
Mean Temperature 42 °F -  
Max Temperature 46 °F - - (-1)
Min Temperature 39 °F - - (-1)
Degree Days  
Heating Degree Days 22    
Moisture  
Dew Point 41 °F    
Average Humidity 87    
Maximum Humidity 100    
Minimum Humidity 62    
Precipitation  
Precipitation 0.00 in - - ()
Sea Level Pressure  
Sea Level Pressure 29.83 in    
Wind  
Wind Speed 7 mph ()    
Max Wind Speed 18 mph    
Max Gust Speed 22 mph    
Visibility 5.2 miles    
Events Fog , Rain    
Averages and records for this station are not official NWS values.
T = Trace of Precipitation, MM = Missing Value Source: Averaged Metar Reports

Daily Weather History Graph

Daily Weather History Graph

Search for Another Location

Airport or City:

Astronomy

Oct. 15, 2019 Rise Set
Actual Time 6:12 AM MSK 4:44 PM MSK
Civil Twilight 5:35 AM MSK 5:21 PM MSK
Nautical Twilight 4:52 AM MSK 6:03 PM MSK
Astronomical Twilight 4:09 AM MSK 6:46 PM MSK
Moon 5:43 PM MSK (10/15) 7:24 AM MSK (10/15)
Length of Visible Light 11h 46m
Length of Day
10h 31m
Full, 98% of the Moon is Illuminated
Oct 15
Full
Oct 21
Last Quarter
Oct 28
New
Nov 4
First Quarter
Nov 12
Full

Hourly Weather History & Observations

Time (MSK) Temp. Windchill Dew Point Humidity Pressure Visibility Wind Dir Wind Speed Gust Speed Precip Events Conditions
12:00 AM 46 °F - 40 °F 74% 29.88 in 6 mi South 2.2 mph - -   Overcast
12:30 AM 44.6 °F 40.8 °F 41.0 °F 87% 29.83 in - SSW 6.7 mph - N/A   Clear
1:00 AM 44.6 °F 39.8 °F 41.0 °F 87% 29.80 in 6.2 mi SSW 8.9 mph - N/A   Scattered Clouds
2:00 AM 44.6 °F 40.8 °F 41.0 °F 87% 29.77 in 6.2 mi South 6.7 mph - N/A Rain Light Rain Showers
3:00 AM 44.6 °F 40.8 °F 42.8 °F 93% 29.74 in 6.2 mi South 6.7 mph - N/A Rain Light Rain Showers
5:00 AM 44.6 °F 39.8 °F 42.8 °F 93% 29.65 in 4.3 mi SE 8.9 mph - N/A Rain Light Rain
5:30 AM 44.6 °F 39.8 °F 42.8 °F 93% 29.62 in 1.7 mi SE 8.9 mph - N/A Rain Light Rain
6:00 AM 45 °F - 45 °F 99% 29.66 in 2 mi ESE 2.2 mph - -   Overcast
6:00 AM 44.6 °F 40.8 °F 44.6 °F 100% 29.62 in 1.6 mi SE 6.7 mph - N/A Rain Light Rain
6:30 AM 44.6 °F 40.8 °F 44.6 °F 100% 29.62 in - SE 6.7 mph - N/A Fog , Rain Light Rain
7:30 AM 46.4 °F 44.4 °F 44.6 °F 93% 29.62 in 0.4 mi ESE 4.5 mph - N/A Fog Fog
8:00 AM 46.4 °F - 44.6 °F 93% 29.62 in - Calm Calm - N/A   Light Drizzle
8:30 AM 46.4 °F - 44.6 °F 93% 29.62 in - North 2.2 mph - N/A   Overcast
9:00 AM 46.4 °F 44.4 °F 44.6 °F 93% 29.65 in 2.2 mi NNW 4.5 mph - N/A   Overcast
9:30 AM 46.4 °F 42.0 °F 44.6 °F 93% 29.65 in 3.1 mi NNW 8.9 mph - N/A   Overcast
10:00 AM 46.4 °F 40.5 °F 44.6 °F 93% 29.68 in 3.7 mi NW 13.4 mph - N/A   Overcast
11:30 AM 46.4 °F 41.2 °F 44.6 °F 93% 29.71 in 3.1 mi North 11.2 mph - N/A   Light Drizzle
12:00 PM 46 °F - 46 °F 97% 29.78 in 2 mi NW 2.2 mph - - Rain Light Rain
12:00 PM 46.4 °F 41.2 °F 44.6 °F 93% 29.74 in 6.2 mi NNW 11.2 mph - N/A   Light Drizzle
12:30 PM 46.4 °F 40.5 °F 44.6 °F 93% 29.77 in 5.6 mi North 13.4 mph - N/A   Light Drizzle
1:00 PM 46.4 °F 40.5 °F 42.8 °F 87% 29.77 in 6.2 mi North 13.4 mph - N/A Rain Light Rain
1:30 PM 46.4 °F 42.0 °F 42.8 °F 87% 29.80 in 6.2 mi NNW 8.9 mph - N/A   Mostly Cloudy
2:00 PM 46.4 °F 41.2 °F 42.8 °F 87% 29.80 in 6.2 mi NNW 11.2 mph - N/A   Overcast
2:30 PM 46.4 °F 40.5 °F 42.8 °F 87% 29.83 in 6.2 mi NW 13.4 mph - N/A   Overcast
3:00 PM 45 °F - 42 °F 84% 29.88 in 6 mi NNW 4.5 mph - - Rain Light Rain
3:30 PM 44.6 °F 39.8 °F 41.0 °F 87% 29.86 in 6.2 mi North 8.9 mph - N/A Rain Light Rain Showers
4:00 PM 44.6 °F 38.9 °F 41.0 °F 87% 29.89 in 6.2 mi NNW 11.2 mph - N/A   Mostly Cloudy
4:30 PM 44.6 °F 38.9 °F 41.0 °F 87% 29.89 in 6.2 mi NNW 11.2 mph - N/A   Mostly Cloudy
5:00 PM 44.6 °F 38.2 °F 39.2 °F 81% 29.92 in 6.2 mi NNW 13.4 mph - N/A   Mostly Cloudy
5:30 PM 44.6 °F 38.2 °F 41.0 °F 87% 29.92 in 6.2 mi NW 13.4 mph - N/A   Mostly Cloudy
6:00 PM 45 °F - 40 °F 75% 29.97 in 6 mi NW 6.7 mph - -  
6:00 PM 44.6 °F 38.2 °F 39.2 °F 81% 29.95 in 6.2 mi NW 13.4 mph - N/A   Mostly Cloudy
6:30 PM 42.8 °F 35.9 °F 39.2 °F 87% 29.95 in 6.2 mi NW 13.4 mph - N/A   Scattered Clouds
7:00 PM 42.8 °F 36.7 °F 39.2 °F 87% 29.95 in 6.2 mi NW 11.2 mph - N/A   Scattered Clouds
7:30 PM 41.0 °F 33.6 °F 39.2 °F 93% 29.98 in 6.2 mi NW 13.4 mph - N/A   Scattered Clouds
8:00 PM 42.8 °F 37.6 °F 39.2 °F 87% 29.98 in 6.2 mi NW 8.9 mph 20.1 mph N/A Rain Light Rain Showers
8:30 PM 42.8 °F 35.9 °F 37.4 °F 81% 30.01 in 6.2 mi NW 13.4 mph - N/A   Mostly Cloudy
9:00 PM 42 °F - 33 °F 62% 30.04 in 6 mi NW 6.7 mph - -   Partly Cloudy
9:00 PM 41.0 °F 34.4 °F 37.4 °F 87% 30.01 in 6.2 mi NNW 11.2 mph 22.4 mph N/A   Mostly Cloudy
9:30 PM 41.0 °F 33.6 °F 33.8 °F 76% 30.01 in 6.2 mi NW 13.4 mph - N/A   Mostly Cloudy
10:00 PM 39.2 °F 30.6 °F 33.8 °F 81% 30.04 in 6.2 mi NW 15.7 mph - N/A   Scattered Clouds
10:30 PM 39.2 °F 30.6 °F 32.0 °F 75% 30.04 in 6.2 mi NNW 15.7 mph - N/A   Mostly Cloudy
11:30 PM 39.2 °F 30.0 °F 33.8 °F 81% 30.06 in 6.2 mi NW 17.9 mph - N/A   Mostly Cloudy